Weather History for Lancaster, PA

Change the Weather History Date:

Saturday, January 6, 2001

  Actual Average Record
Temperature  
Mean Temperature 24 °F -  
Max Temperature 34 °F 42 °F 69 °F (2007)
Min Temperature 15 °F 23 °F -3 °F (1981)
Degree Days  
Heating Degree Days 40    
Moisture  
Dew Point 21 °F    
Average Humidity 84    
Maximum Humidity 100    
Minimum Humidity 54    
Precipitation  
Precipitation 0.00 in - - ()
Sea Level Pressure  
Sea Level Pressure 29.67 in    
Wind  
Wind Speed 5 mph (West)    
Max Wind Speed 20 mph    
Max Gust Speed 29 mph    
Visibility 5 miles    
Events Fog , Rain    
Averages and records for this station are not official NWS values.
T = Trace of Precipitation, MM = Missing Value Source: NWS Daily Summary

Daily Weather History Graph

Daily Weather History Graph

Search for Another Location

Airport:

Trip Planner

Search our weather history database for the weather conditions in past years. The results will help you decide how hot, cold, wet, or windy it might be!

Date:

Astronomy

Jan. 06, 2001 Rise Set
Actual Time 7:27 AM EST 4:54 PM EST
Civil Twilight 6:57 AM EST 5:25 PM EST
Nautical Twilight 6:23 AM EST 5:59 PM EST
Astronomical Twilight 5:50 AM EST 6:31 PM EST
Moon 2:10 PM EST (1/6) 3:44 AM EST (1/6)
Length of Visible Light 10h 27m
Length of Day
9h 27m
Waxing Gibbous, 86% of the Moon is Illuminated
Jan 6
Waxing Gibbous
Jan 9
Full
Jan 16
Last Quarter
Jan 24
New
Feb 1
First Quarter

Hourly Weather History & Observations

Time (EST) Temp. Windchill Dew Point Humidity Pressure Visibility Wind Dir Wind Speed Gust Speed Precip Events Conditions
12:46 AM 26.6 °F - 24.8 °F 93% 29.55 in 2.5 mi Calm Calm - N/A   Overcast
12:53 AM 26.1 °F - 25.0 °F 96% 29.57 in 1.5 mi Calm Calm - N/A   Overcast
1:38 AM 24.8 °F 20.5 °F 24.8 °F 100% 29.56 in 2.5 mi West 3.5 mph - N/A   Overcast
1:53 AM 25.0 °F 20.7 °F 24.1 °F 96% 29.58 in 2.5 mi WSW 3.5 mph - N/A   Overcast
2:29 AM 24.8 °F - 24.8 °F 100% 29.57 in 1.2 mi Calm Calm - N/A   Overcast
2:44 AM 23.0 °F 18.4 °F 21.2 °F 93% 29.58 in 0.2 mi West 3.5 mph - N/A Fog Light Freezing Fog
2:53 AM 24.1 °F 19.7 °F 23.0 °F 96% 29.60 in 0.5 mi WSW 3.5 mph - N/A Fog Light Freezing Fog
3:11 AM 24.8 °F 19.1 °F 24.8 °F 100% 29.58 in 1.8 mi WSW 4.6 mph - N/A   Overcast
3:31 AM 21.2 °F 14.9 °F 21.2 °F 100% 29.58 in 0.5 mi West 4.6 mph - N/A Fog Light Freezing Fog
3:53 AM 21.9 °F 14.5 °F 21.0 °F 96% 29.60 in 1.2 mi West 5.8 mph - N/A   Overcast
4:21 AM 23.0 °F 18.4 °F 21.2 °F 93% 29.59 in 0.8 mi West 3.5 mph - N/A   Overcast
4:39 AM 23.0 °F 18.4 °F 21.2 °F 93% 29.60 in 1.5 mi WSW 3.5 mph - N/A   Scattered Clouds
4:53 AM 21.9 °F 17.2 °F 21.0 °F 96% 29.61 in 0.5 mi West 3.5 mph - N/A Fog Light Freezing Fog
4:59 AM 21.2 °F 16.4 °F 19.4 °F 93% 29.60 in 0.2 mi WSW 3.5 mph - N/A Fog Light Freezing Fog
5:43 AM 21.2 °F 16.4 °F 21.2 °F 100% 29.62 in 0.8 mi WSW 3.5 mph - N/A   Overcast
5:53 AM 21.9 °F 17.2 °F 19.9 °F 92% 29.64 in 0.8 mi SW 3.5 mph - N/A   Overcast
6:13 AM 19.4 °F - 17.6 °F 93% 29.63 in 0.2 mi Calm Calm - N/A Fog Light Freezing Fog
6:53 AM 19.0 °F - 18.0 °F 96% 29.66 in 0.2 mi Calm Calm - N/A Fog Light Freezing Fog
7:15 AM 19.4 °F 14.3 °F 17.6 °F 93% 29.65 in 0.5 mi NW 3.5 mph - N/A Fog Light Freezing Fog
7:24 AM 15.8 °F 8.6 °F 15.8 °F 100% 29.66 in 0.2 mi WNW 4.6 mph - N/A Fog Light Freezing Fog
7:31 AM 21.2 °F 13.6 °F 19.4 °F 93% 29.66 in 1.0 mi WNW 5.8 mph - N/A   Mostly Cloudy
7:53 AM 23.0 °F 13.9 °F 21.9 °F 96% 29.68 in 3.0 mi West 8.1 mph - N/A   Overcast
8:53 AM 27.0 °F 18.0 °F 24.1 °F 89% 29.70 in 10.0 mi West 9.2 mph - N/A   Mostly Cloudy
8:55 AM 26.6 °F 17.5 °F 24.8 °F 93% 29.69 in 10.0 mi West 9.2 mph - N/A   Mostly Cloudy
9:53 AM 33.1 °F 22.6 °F 21.9 °F 64% 29.72 in 10.0 mi WNW 16.1 mph - N/A   Mostly Cloudy
10:53 AM 33.1 °F 22.6 °F 21.9 °F 64% 29.72 in 10.0 mi WNW 16.1 mph 28.8 mph 0.00 in   Clear
11:53 AM 33.1 °F 21.5 °F 23.0 °F 66% 29.71 in 10.0 mi WNW 19.6 mph - N/A   Clear
12:00 PM 33.8 °F 22.5 °F 23.0 °F 65% 29.70 in 10.0 mi WNW 19.6 mph - N/A   Clear
12:53 PM 34.0 °F 23.8 °F 21.0 °F 59% 29.72 in 10.0 mi WNW 16.1 mph - N/A   Clear
1:53 PM 33.1 °F 21.5 °F 19.0 °F 56% 29.73 in 10.0 mi WNW 19.6 mph 26.5 mph 0.00 in Rain Light Rain
2:53 PM 34.0 °F 23.0 °F 19.0 °F 54% 29.74 in 10.0 mi WNW 18.4 mph 26.5 mph 0.00 in   Clear
3:53 PM 34.0 °F 25.0 °F 19.9 °F 56% 29.76 in 10.0 mi WNW 12.7 mph - N/A   Clear
4:53 PM 30.9 °F 22.2 °F 19.0 °F 61% 29.78 in 10.0 mi WNW 10.4 mph - N/A   Mostly Cloudy
5:53 PM 30.0 °F 22.4 °F 21.9 °F 72% 29.79 in 10.0 mi West 8.1 mph - N/A   Overcast
6:53 PM 32.0 °F 24.8 °F 21.0 °F 64% 29.82 in 10.0 mi West 8.1 mph - N/A   Overcast
8:53 PM 28.9 °F - 21.0 °F 72% 29.83 in 10.0 mi Calm Calm - N/A   Mostly Cloudy
9:53 PM 28.0 °F - 21.0 °F 75% 29.82 in 10.0 mi Calm Calm - N/A   Clear
10:53 PM 25.0 °F - 19.9 °F 81% 29.82 in 10.0 mi Calm Calm - N/A   Clear
11:53 PM 21.0 °F 14.6 °F 18.0 °F 88% 29.82 in 7.0 mi NE 4.6 mph - N/A   Clear